Machine Overzicht

Generator events en service beheer USB: 6D2E8D6484 ×
Records
234
van 353,750
Machines
1
Starts
103
Warnings
37
25 resultaten · pagina 8 van 10
Dubbelklik service uren om te bewerken
ID Machine Gebeurtenis Tijd Uren Service Status USB ID
307628 60-059XAS-S5 Engine Start 29-08-2025 06:45:46 202 500 In orde 6D2E8D6484
307509 60-059XAS-S5 Generator Over Current Warning 28-08-2025 09:24:11 196 500 In orde 6D2E8D6484
306944 60-059XAS-S5 Engine Stopped 25-08-2025 07:51:29 195 500 In orde 6D2E8D6484
306941 60-059XAS-S5 Engine Start 25-08-2025 07:46:10 195 500 In orde 6D2E8D6484
306303 60-059XAS-S5 MSC Failure Warning 21-08-2025 14:07:48 195 500 In orde 6D2E8D6484
306305 60-059XAS-S5 Engine Stopped 21-08-2025 14:07:07 195 500 In orde 6D2E8D6484
306282 60-059XAS-S5 kW Overload Alarm Warning 21-08-2025 13:45:49 194 500 In orde 6D2E8D6484
306285 60-059XAS-S5 Engine Start 21-08-2025 13:44:56 194 500 In orde 6D2E8D6484
306280 60-059XAS-S5 Engine Stopped 21-08-2025 13:44:23 194 500 In orde 6D2E8D6484
306277 60-059XAS-S5 Engine Start 21-08-2025 13:43:19 194 500 In orde 6D2E8D6484
306267 60-059XAS-S5 Engine Stopped 21-08-2025 13:40:37 194 500 In orde 6D2E8D6484
306268 60-059XAS-S5 Emergency Stop Shutdown 21-08-2025 13:40:26 194 500 In orde 6D2E8D6484
306269 60-059XAS-S5 Aardfout Alarm Shutdown 21-08-2025 13:40:16 194 500 In orde 6D2E8D6484
306266 60-059XAS-S5 Engine Start 21-08-2025 13:39:21 194 500 In orde 6D2E8D6484
304283 60-059XAS-S5 Engine Start 18-08-2025 14:07:39 194 500 In orde 6D2E8D6484
304227 60-059XAS-S5 Engine Stopped 18-08-2025 06:11:15 194 500 In orde 6D2E8D6484
304229 60-059XAS-S5 Generator Under Volts Warning 18-08-2025 06:09:34 193 500 In orde 6D2E8D6484
304233 60-059XAS-S5 Engine Start 18-08-2025 05:22:57 193 500 In orde 6D2E8D6484
304112 60-059XAS-S5 Engine Stopped 17-08-2025 08:42:58 193 500 In orde 6D2E8D6484
304115 60-059XAS-S5 Generator Over Current Warning 17-08-2025 08:41:36 193 500 In orde 6D2E8D6484
304015 60-059XAS-S5 Engine Stopped 16-08-2025 13:29:12 192 500 In orde 6D2E8D6484
304014 60-059XAS-S5 Generator Under Volts Warning 16-08-2025 13:27:32 192 500 In orde 6D2E8D6484
304008 60-059XAS-S5 Engine Start 16-08-2025 12:58:30 191 500 In orde 6D2E8D6484
303821 60-059XAS-S5 Engine Stopped 15-08-2025 07:29:24 191 500 In orde 6D2E8D6484
303822 60-059XAS-S5 Generator Under Volts Warning 15-08-2025 07:22:22 191 500 In orde 6D2E8D6484
176–200 van 234